GFSFLT2_prec_pwat_111.txt.gz
Precipitable_Water
1.07 1.05 1.04 1.01 0.97 0.94 0.87 0.83 0.79 0.75 0.73 0.71 0.69 0.67 0.66 0.63 0.62 0.62 0.62 0.60 0.58 0.52 0.44 0.51 0.62 0.68 0.76
0.95 0.96 0.97 0.96 0.93 0.87 0.79 0.74 0.71 0.71 0.70 0.69 0.68 0.66 0.64 0.61 0.61 0.61 0.59 0.58 0.52 0.43 0.43 0.54 0.62 0.68 0.74
0.95 0.97 0.95 0.93 0.88 0.86 0.74 0.68 0.69 0.71 0.70 0.68 0.68 0.66 0.63 0.60 0.60 0.58 0.57 0.50 0.40 0.39 0.41 0.56 0.61 0.69 0.76
0.97 0.94 0.95 0.95 0.92 0.81 0.71 0.68 0.65 0.68 0.68 0.66 0.66 0.64 0.59 0.59 0.58 0.54 0.49 0.40 0.38 0.38 0.43 0.58 0.66 0.73 0.77
0.93 0.93 0.91 0.88 0.82 0.82 0.76 0.71 0.66 0.67 0.62 0.62 0.61 0.59 0.57 0.55 0.52 0.47 0.40 0.39 0.38 0.37 0.47 0.60 0.73 0.80 0.82
0.89 0.88 0.89 0.90 0.88 0.80 0.74 0.64 0.56 0.68 0.61 0.57 0.58 0.56 0.54 0.51 0.47 0.40 0.38 0.39 0.38 0.38 0.46 0.62 0.71 0.82 0.84
0.81 0.86 0.86 0.91 0.88 0.79 0.72 0.66 0.60 0.61 0.59 0.53 0.58 0.54 0.49 0.42 0.39 0.38 0.38 0.38 0.38 0.38 0.40 0.58 0.70 0.77 0.79
0.88 0.86 0.87 0.86 0.82 0.76 0.72 0.67 0.64 0.61 0.60 0.49 0.52 0.44 0.42 0.38 0.40 0.41 0.39 0.40 0.39 0.38 0.37 0.47 0.63 0.72 0.78
0.82 0.81 0.82 0.77 0.75 0.70 0.63 0.57 0.53 0.55 0.58 0.51 0.46 0.41 0.38 0.36 0.39 0.43 0.42 0.41 0.41 0.41 0.38 0.36 0.49 0.65 0.71
0.77 0.80 0.77 0.77 0.75 0.71 0.65 0.56 0.53 0.50 0.55 0.48 0.44 0.40 0.31 0.36 0.40 0.44 0.43 0.43 0.42 0.41 0.40 0.38 0.36 0.41 0.56
0.68 0.69 0.70 0.74 0.73 0.72 0.69 0.63 0.56 0.52 0.53 0.48 0.42 0.40 0.34 0.35 0.40 0.42 0.43 0.44 0.45 0.43 0.42 0.41 0.40 0.36 0.40
0.63 0.62 0.64 0.65 0.67 0.68 0.65 0.64 0.62 0.56 0.56 0.50 0.37 0.35 0.34 0.35 0.35 0.40 0.43 0.45 0.47 0.46 0.45 0.44 0.43 0.43 0.40
0.60 0.62 0.64 0.64 0.64 0.60 0.61 0.61 0.61 0.58 0.56 0.50 0.41 0.36 0.36 0.34 0.35 0.42 0.39 0.37 0.41 0.42 0.43 0.43 0.42 0.41 0.41
0.61 0.63 0.64 0.63 0.60 0.58 0.53 0.51 0.48 0.47 0.49 0.47 0.43 0.39 0.36 0.36 0.39 0.41 0.37 0.32 0.38 0.39 0.38 0.38 0.41 0.44 0.42
0.59 0.59 0.58 0.57 0.57 0.57 0.52 0.48 0.43 0.42 0.40 0.41 0.43 0.41 0.39 0.39 0.41 0.38 0.35 0.35 0.36 0.36 0.36 0.35 0.37 0.40 0.42
0.56 0.57 0.56 0.55 0.55 0.54 0.51 0.47 0.46 0.43 0.40 0.37 0.37 0.36 0.36 0.41 0.45 0.37 0.38 0.37 0.38 0.37 0.35 0.32 0.35 0.41 0.43
0.56 0.55 0.55 0.54 0.54 0.53 0.53 0.52 0.45 0.39 0.35 0.35 0.33 0.33 0.32 0.34 0.40 0.42 0.39 0.38 0.37 0.35 0.34 0.34 0.35 0.41 0.46

GFSFLT2_prec_pwat_114.txt.gz
Precipitable_Water
1.15 1.24 1.22 1.20 1.17 1.16 1.14 1.07 1.01 0.97 0.90 0.83 0.78 0.75 0.70 0.67 0.64 0.63 0.61 0.60 0.59 0.58 0.54 0.46 0.52 0.59 0.64
1.11 1.14 1.15 1.15 1.11 1.09 1.06 1.02 0.97 0.92 0.86 0.82 0.77 0.72 0.70 0.67 0.63 0.62 0.59 0.59 0.58 0.51 0.42 0.42 0.53 0.59 0.65
1.03 1.11 1.10 1.08 1.05 1.04 1.01 0.98 0.95 0.90 0.86 0.82 0.78 0.74 0.68 0.66 0.66 0.63 0.59 0.60 0.53 0.41 0.38 0.45 0.57 0.65 0.68
0.98 1.00 1.01 1.03 1.03 0.97 0.94 0.97 0.93 0.91 0.87 0.83 0.79 0.76 0.71 0.66 0.66 0.61 0.58 0.54 0.42 0.38 0.38 0.51 0.61 0.68 0.70
0.84 0.86 0.87 0.89 0.89 0.94 0.91 0.93 0.92 0.89 0.82 0.78 0.76 0.72 0.69 0.66 0.65 0.62 0.55 0.45 0.39 0.39 0.39 0.52 0.63 0.73 0.74
0.78 0.72 0.77 0.83 0.87 0.86 0.85 0.84 0.79 0.89 0.75 0.69 0.68 0.63 0.63 0.64 0.62 0.58 0.49 0.40 0.40 0.41 0.39 0.54 0.61 0.70 0.73
0.73 0.72 0.74 0.81 0.81 0.76 0.82 0.80 0.78 0.80 0.76 0.65 0.67 0.62 0.61 0.60 0.56 0.48 0.40 0.39 0.40 0.40 0.38 0.50 0.59 0.65 0.70
0.80 0.83 0.84 0.85 0.85 0.81 0.81 0.80 0.78 0.75 0.72 0.59 0.62 0.58 0.59 0.56 0.47 0.41 0.39 0.40 0.40 0.40 0.38 0.40 0.52 0.64 0.67
0.79 0.81 0.85 0.83 0.88 0.82 0.76 0.73 0.64 0.63 0.65 0.57 0.55 0.52 0.51 0.45 0.42 0.43 0.42 0.40 0.41 0.43 0.41 0.37 0.41 0.57 0.61
0.70 0.72 0.81 0.76 0.77 0.75 0.71 0.64 0.61 0.59 0.63 0.56 0.52 0.50 0.40 0.39 0.39 0.42 0.43 0.43 0.44 0.42 0.41 0.40 0.37 0.42 0.54
0.66 0.67 0.68 0.72 0.76 0.75 0.78 0.73 0.66 0.62 0.65 0.60 0.52 0.49 0.39 0.31 0.37 0.41 0.44 0.43 0.42 0.42 0.41 0.40 0.39 0.34 0.37
0.57 0.58 0.62 0.66 0.69 0.72 0.75 0.74 0.74 0.68 0.68 0.61 0.51 0.48 0.42 0.35 0.34 0.41 0.43 0.44 0.45 0.45 0.44 0.42 0.42 0.42 0.39
0.54 0.59 0.60 0.62 0.67 0.66 0.68 0.67 0.68 0.67 0.66 0.61 0.56 0.44 0.37 0.34 0.34 0.38 0.40 0.45 0.44 0.42 0.43 0.42 0.40 0.41 0.39
0.54 0.56 0.61 0.60 0.58 0.60 0.60 0.60 0.61 0.61 0.62 0.62 0.56 0.48 0.36 0.34 0.36 0.39 0.44 0.39 0.39 0.39 0.39 0.39 0.41 0.42 0.41
0.55 0.54 0.54 0.55 0.53 0.56 0.56 0.55 0.56 0.55 0.55 0.58 0.53 0.47 0.40 0.37 0.36 0.41 0.43 0.38 0.38 0.36 0.35 0.35 0.37 0.37 0.39
0.53 0.53 0.52 0.53 0.53 0.53 0.55 0.53 0.53 0.51 0.50 0.49 0.45 0.44 0.40 0.40 0.41 0.41 0.41 0.37 0.38 0.38 0.35 0.33 0.33 0.36 0.38
0.49 0.51 0.52 0.52 0.51 0.50 0.51 0.51 0.51 0.50 0.49 0.47 0.45 0.40 0.32 0.31 0.40 0.46 0.39 0.38 0.39 0.39 0.36 0.34 0.34 0.37 0.40

GFSFLT2_prec_pwat_120.txt.gz
Precipitable_Water
1.07 1.09 1.05 1.05 1.07 1.11 1.16 1.19 1.17 1.20 1.18 1.18 1.15 1.11 1.08 1.06 0.98 0.92 0.86 0.81 0.78 0.76 0.73 0.70 0.65 0.61 0.52
0.86 0.88 0.89 0.95 0.98 0.98 1.03 1.09 1.10 1.14 1.14 1.13 1.11 1.08 1.03 0.99 0.92 0.87 0.86 0.80 0.78 0.74 0.73 0.68 0.62 0.52 0.51
0.63 0.72 0.74 0.80 0.80 0.87 0.89 0.95 1.02 1.05 1.07 1.07 1.08 1.05 1.00 0.96 0.89 0.89 0.81 0.80 0.75 0.72 0.68 0.64 0.58 0.49 0.56
0.53 0.57 0.60 0.66 0.70 0.68 0.72 0.82 0.86 0.92 1.01 0.98 1.01 1.02 0.99 0.96 0.92 0.88 0.83 0.76 0.75 0.72 0.70 0.64 0.49 0.47 0.58
0.43 0.45 0.46 0.48 0.50 0.60 0.63 0.68 0.77 0.81 0.83 0.91 0.96 0.94 0.96 0.97 0.94 0.88 0.83 0.78 0.73 0.67 0.64 0.54 0.47 0.46 0.59
0.40 0.40 0.44 0.48 0.52 0.52 0.55 0.59 0.53 0.71 0.78 0.82 0.87 0.86 0.93 0.93 0.94 0.90 0.88 0.78 0.71 0.66 0.61 0.48 0.45 0.45 0.61
0.40 0.43 0.45 0.51 0.55 0.53 0.55 0.55 0.58 0.67 0.75 0.73 0.82 0.81 0.85 0.86 0.89 0.88 0.87 0.79 0.72 0.66 0.54 0.43 0.41 0.43 0.59
0.42 0.44 0.50 0.56 0.60 0.59 0.57 0.57 0.64 0.74 0.77 0.64 0.70 0.75 0.77 0.82 0.86 0.82 0.77 0.74 0.69 0.61 0.46 0.41 0.40 0.43 0.55
0.42 0.45 0.47 0.52 0.58 0.57 0.53 0.52 0.49 0.56 0.65 0.66 0.69 0.70 0.74 0.74 0.77 0.79 0.74 0.71 0.68 0.49 0.42 0.40 0.39 0.37 0.50
0.35 0.39 0.44 0.47 0.52 0.56 0.57 0.51 0.54 0.52 0.66 0.63 0.63 0.65 0.59 0.70 0.72 0.74 0.74 0.69 0.61 0.43 0.39 0.38 0.39 0.35 0.42
0.37 0.38 0.40 0.43 0.49 0.55 0.57 0.60 0.52 0.52 0.62 0.62 0.60 0.63 0.63 0.61 0.67 0.70 0.67 0.62 0.48 0.39 0.37 0.38 0.43 0.40 0.41
0.36 0.37 0.39 0.41 0.49 0.54 0.57 0.62 0.62 0.63 0.65 0.64 0.59 0.61 0.59 0.57 0.57 0.65 0.63 0.57 0.43 0.37 0.38 0.40 0.43 0.41 0.40
0.34 0.37 0.42 0.45 0.49 0.51 0.58 0.59 0.61 0.62 0.64 0.63 0.61 0.61 0.59 0.56 0.56 0.47 0.54 0.47 0.41 0.41 0.42 0.40 0.41 0.40 0.38
0.36 0.40 0.44 0.44 0.45 0.49 0.51 0.51 0.51 0.53 0.58 0.60 0.59 0.58 0.55 0.56 0.57 0.52 0.43 0.36 0.40 0.43 0.45 0.45 0.44 0.43 0.42
0.37 0.38 0.40 0.43 0.46 0.49 0.49 0.49 0.47 0.48 0.50 0.54 0.57 0.58 0.58 0.56 0.52 0.53 0.41 0.37 0.43 0.45 0.45 0.44 0.44 0.44 0.44
0.37 0.39 0.39 0.41 0.45 0.46 0.47 0.47 0.46 0.46 0.47 0.50 0.51 0.51 0.52 0.53 0.52 0.40 0.38 0.38 0.44 0.46 0.45 0.41 0.40 0.42 0.43
0.36 0.38 0.40 0.41 0.43 0.43 0.44 0.46 0.46 0.47 0.47 0.49 0.49 0.48 0.45 0.43 0.48 0.42 0.37 0.40 0.45 0.43 0.42 0.39 0.37 0.38 0.40

GFSFLT2_prec_pwat_126.txt.gz
Precipitable_Water
1.14 1.14 1.08 1.04 1.03 1.03 0.99 0.90 0.81 0.76 0.76 0.79 0.83 0.89 0.96 1.03 1.08 1.12 1.11 1.12 1.05 1.08 1.08 1.04 0.98 0.96 0.91
0.88 0.87 0.85 0.85 0.77 0.66 0.60 0.61 0.60 0.59 0.61 0.63 0.70 0.75 0.86 0.88 0.95 1.01 1.04 1.03 1.04 1.07 1.07 1.01 0.96 0.93 0.91
0.57 0.55 0.50 0.47 0.42 0.43 0.41 0.43 0.47 0.51 0.55 0.57 0.60 0.63 0.70 0.79 0.83 0.85 0.98 0.97 1.01 1.03 1.01 0.99 0.94 0.89 0.86
0.31 0.33 0.37 0.41 0.44 0.40 0.38 0.43 0.43 0.46 0.48 0.49 0.55 0.58 0.62 0.67 0.77 0.82 0.87 0.90 0.92 0.97 0.94 0.95 0.89 0.87 0.86
0.29 0.31 0.32 0.33 0.33 0.40 0.40 0.42 0.43 0.49 0.46 0.45 0.45 0.50 0.55 0.61 0.67 0.76 0.78 0.82 0.88 0.88 0.87 0.88 0.87 0.89 0.87
0.30 0.30 0.32 0.35 0.39 0.38 0.36 0.34 0.31 0.44 0.43 0.45 0.47 0.46 0.49 0.54 0.61 0.68 0.72 0.74 0.80 0.81 0.80 0.82 0.88 0.87 0.86
0.30 0.31 0.32 0.34 0.38 0.36 0.35 0.35 0.34 0.40 0.41 0.36 0.43 0.42 0.48 0.55 0.58 0.64 0.67 0.74 0.79 0.78 0.82 0.77 0.78 0.79 0.81
0.35 0.35 0.36 0.37 0.38 0.38 0.39 0.40 0.42 0.42 0.41 0.30 0.43 0.37 0.50 0.54 0.59 0.62 0.68 0.72 0.70 0.73 0.74 0.76 0.80 0.80 0.79
0.37 0.37 0.39 0.41 0.42 0.42 0.35 0.34 0.33 0.35 0.41 0.38 0.39 0.40 0.46 0.52 0.60 0.59 0.66 0.71 0.73 0.70 0.75 0.76 0.76 0.77 0.77
0.33 0.35 0.38 0.39 0.40 0.42 0.41 0.35 0.35 0.33 0.39 0.39 0.40 0.43 0.36 0.46 0.53 0.56 0.58 0.67 0.70 0.70 0.70 0.71 0.71 0.72 0.67
0.32 0.33 0.34 0.37 0.39 0.41 0.44 0.42 0.37 0.36 0.44 0.45 0.44 0.43 0.42 0.43 0.48 0.52 0.54 0.60 0.65 0.67 0.67 0.68 0.69 0.68 0.58
0.32 0.31 0.31 0.32 0.35 0.40 0.44 0.46 0.47 0.43 0.47 0.49 0.45 0.45 0.43 0.42 0.43 0.51 0.54 0.58 0.60 0.60 0.62 0.63 0.63 0.59 0.49
0.31 0.31 0.33 0.34 0.37 0.40 0.44 0.46 0.47 0.47 0.49 0.51 0.48 0.47 0.46 0.45 0.44 0.49 0.50 0.54 0.58 0.58 0.59 0.60 0.55 0.46 0.42
0.30 0.31 0.33 0.33 0.34 0.39 0.39 0.41 0.42 0.43 0.49 0.50 0.50 0.48 0.44 0.46 0.48 0.48 0.51 0.49 0.55 0.55 0.55 0.51 0.45 0.43 0.39
0.29 0.30 0.31 0.31 0.32 0.38 0.40 0.40 0.38 0.40 0.42 0.44 0.47 0.47 0.48 0.48 0.45 0.49 0.50 0.51 0.54 0.54 0.52 0.41 0.39 0.40 0.42
0.30 0.30 0.29 0.29 0.31 0.35 0.39 0.38 0.36 0.39 0.40 0.41 0.42 0.42 0.43 0.46 0.51 0.47 0.49 0.49 0.52 0.52 0.45 0.35 0.35 0.42 0.46
0.30 0.30 0.30 0.30 0.31 0.32 0.35 0.37 0.35 0.38 0.40 0.41 0.42 0.40 0.37 0.36 0.45 0.53 0.46 0.47 0.46 0.43 0.39 0.37 0.39 0.42 0.45

GFSFLT2_prec_pwat_129.txt.gz
Precipitable_Water
1.20 1.18 1.16 1.13 1.11 1.06 0.98 0.88 0.80 0.67 0.59 0.56 0.56 0.57 0.57 0.61 0.68 0.73 0.82 0.88 0.94 1.03 1.05 1.08 1.02 1.00 0.99
1.04 1.04 0.94 0.85 0.72 0.62 0.54 0.48 0.44 0.42 0.44 0.44 0.46 0.48 0.50 0.51 0.55 0.62 0.67 0.79 0.87 0.91 1.02 1.01 1.00 1.02 1.00
0.67 0.59 0.50 0.41 0.34 0.36 0.37 0.38 0.43 0.45 0.45 0.44 0.45 0.45 0.49 0.53 0.57 0.58 0.61 0.67 0.77 0.86 0.91 0.95 0.95 0.96 0.95
0.29 0.27 0.28 0.29 0.32 0.30 0.31 0.37 0.37 0.39 0.37 0.39 0.44 0.48 0.49 0.50 0.51 0.56 0.57 0.59 0.65 0.79 0.84 0.84 0.91 0.95 0.92
0.25 0.26 0.27 0.29 0.30 0.34 0.32 0.34 0.36 0.36 0.36 0.40 0.38 0.41 0.40 0.43 0.47 0.50 0.53 0.56 0.61 0.69 0.76 0.77 0.85 0.89 0.83
0.26 0.27 0.27 0.30 0.32 0.33 0.33 0.32 0.30 0.41 0.40 0.39 0.44 0.39 0.37 0.42 0.45 0.49 0.52 0.54 0.60 0.64 0.70 0.73 0.75 0.80 0.77
0.28 0.29 0.29 0.32 0.34 0.34 0.34 0.34 0.34 0.38 0.37 0.35 0.40 0.36 0.41 0.44 0.45 0.48 0.53 0.55 0.59 0.62 0.68 0.68 0.71 0.70 0.72
0.33 0.33 0.35 0.36 0.38 0.39 0.38 0.38 0.38 0.38 0.40 0.32 0.37 0.36 0.43 0.45 0.48 0.51 0.54 0.56 0.58 0.60 0.64 0.66 0.64 0.72 0.72
0.36 0.37 0.37 0.38 0.40 0.40 0.35 0.33 0.31 0.35 0.38 0.38 0.38 0.38 0.41 0.42 0.47 0.52 0.56 0.57 0.57 0.60 0.65 0.68 0.68 0.65 0.67
0.33 0.34 0.36 0.37 0.40 0.41 0.39 0.33 0.33 0.32 0.39 0.37 0.36 0.39 0.35 0.44 0.46 0.49 0.52 0.54 0.57 0.63 0.66 0.65 0.65 0.62 0.59
0.33 0.34 0.35 0.35 0.34 0.36 0.37 0.35 0.32 0.32 0.41 0.41 0.36 0.38 0.39 0.39 0.44 0.49 0.50 0.51 0.54 0.58 0.62 0.60 0.63 0.61 0.62
0.28 0.28 0.27 0.27 0.29 0.32 0.35 0.37 0.40 0.39 0.43 0.43 0.37 0.39 0.39 0.38 0.38 0.48 0.51 0.54 0.55 0.52 0.56 0.58 0.61 0.60 0.64
0.25 0.25 0.27 0.28 0.30 0.32 0.34 0.37 0.39 0.42 0.45 0.46 0.43 0.43 0.43 0.41 0.39 0.42 0.44 0.49 0.53 0.53 0.54 0.56 0.56 0.57 0.53
0.26 0.27 0.29 0.29 0.30 0.32 0.30 0.32 0.33 0.36 0.43 0.46 0.46 0.46 0.43 0.43 0.43 0.42 0.46 0.43 0.50 0.51 0.53 0.54 0.55 0.53 0.49
0.27 0.27 0.28 0.29 0.29 0.31 0.31 0.32 0.32 0.34 0.37 0.42 0.47 0.46 0.45 0.43 0.41 0.43 0.45 0.46 0.50 0.50 0.50 0.47 0.46 0.45 0.46
0.27 0.27 0.27 0.28 0.28 0.30 0.32 0.32 0.32 0.34 0.37 0.40 0.41 0.39 0.42 0.44 0.46 0.42 0.45 0.46 0.49 0.50 0.50 0.40 0.38 0.41 0.42
0.28 0.28 0.30 0.30 0.29 0.29 0.30 0.32 0.33 0.35 0.37 0.39 0.39 0.36 0.35 0.34 0.42 0.48 0.44 0.46 0.47 0.47 0.45 0.39 0.38 0.40 0.45

GFSFLT2_prec_pwat_132.txt.gz
Precipitable_Water
1.20 1.23 1.21 1.19 1.18 1.16 1.14 1.08 0.97 0.81 0.67 0.57 0.48 0.43 0.43 0.44 0.48 0.51 0.53 0.55 0.59 0.65 0.73 0.84 0.89 1.00 1.05
1.08 1.11 1.08 1.02 0.98 0.84 0.71 0.58 0.49 0.41 0.38 0.37 0.36 0.37 0.43 0.50 0.51 0.53 0.54 0.54 0.55 0.58 0.62 0.69 0.80 0.91 1.07
0.93 0.90 0.77 0.65 0.44 0.38 0.33 0.32 0.32 0.33 0.35 0.35 0.34 0.39 0.42 0.43 0.46 0.48 0.48 0.46 0.51 0.54 0.58 0.61 0.69 0.86 1.02
0.46 0.35 0.30 0.30 0.30 0.27 0.26 0.32 0.31 0.33 0.34 0.36 0.41 0.41 0.40 0.43 0.42 0.42 0.43 0.47 0.50 0.52 0.54 0.58 0.64 0.78 0.94
0.21 0.23 0.24 0.27 0.29 0.33 0.32 0.33 0.33 0.33 0.35 0.36 0.36 0.36 0.36 0.39 0.40 0.42 0.46 0.47 0.48 0.50 0.52 0.55 0.58 0.69 0.75
0.23 0.25 0.29 0.32 0.33 0.32 0.31 0.30 0.28 0.37 0.36 0.35 0.38 0.35 0.37 0.39 0.42 0.44 0.45 0.46 0.48 0.50 0.50 0.53 0.57 0.66 0.73
0.29 0.30 0.29 0.32 0.33 0.32 0.33 0.34 0.33 0.35 0.36 0.33 0.38 0.36 0.41 0.41 0.44 0.47 0.48 0.49 0.48 0.50 0.52 0.54 0.56 0.59 0.66
0.31 0.32 0.34 0.36 0.36 0.36 0.36 0.37 0.38 0.36 0.39 0.33 0.38 0.37 0.40 0.41 0.44 0.47 0.47 0.46 0.47 0.51 0.52 0.52 0.56 0.60 0.66
0.34 0.34 0.35 0.35 0.37 0.37 0.35 0.33 0.31 0.33 0.36 0.35 0.33 0.32 0.34 0.34 0.43 0.47 0.45 0.43 0.45 0.49 0.55 0.56 0.59 0.65 0.66
0.31 0.32 0.34 0.35 0.37 0.37 0.35 0.29 0.28 0.26 0.32 0.31 0.31 0.33 0.27 0.35 0.39 0.44 0.45 0.45 0.46 0.49 0.55 0.59 0.60 0.60 0.61
0.32 0.32 0.33 0.32 0.32 0.31 0.32 0.31 0.29 0.28 0.35 0.35 0.31 0.32 0.32 0.31 0.37 0.42 0.44 0.45 0.47 0.50 0.54 0.57 0.57 0.57 0.54
0.30 0.28 0.28 0.28 0.29 0.31 0.32 0.33 0.36 0.35 0.38 0.39 0.33 0.34 0.33 0.32 0.32 0.42 0.44 0.46 0.47 0.48 0.52 0.54 0.54 0.57 0.56
0.27 0.27 0.28 0.29 0.30 0.31 0.32 0.34 0.35 0.37 0.39 0.40 0.38 0.38 0.38 0.36 0.36 0.39 0.40 0.44 0.47 0.47 0.49 0.49 0.50 0.52 0.52
0.26 0.27 0.28 0.28 0.28 0.30 0.29 0.30 0.30 0.31 0.37 0.39 0.40 0.40 0.38 0.41 0.40 0.38 0.41 0.39 0.45 0.46 0.47 0.48 0.50 0.55 0.52
0.26 0.26 0.26 0.27 0.28 0.30 0.31 0.30 0.28 0.28 0.31 0.37 0.41 0.42 0.43 0.42 0.38 0.40 0.41 0.42 0.45 0.45 0.45 0.45 0.45 0.49 0.48
0.27 0.27 0.27 0.28 0.28 0.30 0.30 0.29 0.28 0.30 0.32 0.35 0.38 0.38 0.39 0.41 0.44 0.41 0.41 0.41 0.44 0.46 0.46 0.42 0.38 0.44 0.48
0.27 0.29 0.29 0.29 0.28 0.29 0.30 0.30 0.29 0.31 0.34 0.37 0.37 0.34 0.31 0.30 0.39 0.46 0.40 0.42 0.44 0.45 0.46 0.39 0.36 0.40 0.48

GFSFLT2_prec_pwat_138.txt.gz
Precipitable_Water
0.94 0.94 0.91 0.90 0.97 0.99 1.06 1.07 1.05 1.06 1.05 1.06 0.92 0.85 0.73 0.67 0.59 0.48 0.45 0.46 0.46 0.46 0.49 0.50 0.51 0.51 0.52
0.79 0.84 0.91 0.93 0.93 0.92 0.95 1.00 0.96 0.90 0.85 0.72 0.68 0.53 0.44 0.40 0.41 0.43 0.43 0.44 0.43 0.44 0.45 0.47 0.47 0.49 0.52
0.74 0.84 0.89 0.81 0.79 0.79 0.79 0.83 0.64 0.56 0.49 0.41 0.38 0.41 0.43 0.46 0.47 0.48 0.46 0.45 0.46 0.47 0.47 0.48 0.48 0.49 0.50
0.75 0.71 0.61 0.47 0.42 0.36 0.32 0.34 0.30 0.35 0.38 0.39 0.40 0.41 0.42 0.44 0.45 0.45 0.45 0.46 0.47 0.47 0.47 0.48 0.48 0.47 0.48
0.40 0.37 0.34 0.30 0.28 0.30 0.26 0.26 0.29 0.36 0.36 0.36 0.37 0.38 0.39 0.42 0.44 0.45 0.46 0.47 0.48 0.49 0.49 0.48 0.46 0.46 0.46
0.30 0.21 0.21 0.23 0.25 0.26 0.27 0.26 0.25 0.37 0.34 0.32 0.36 0.33 0.37 0.39 0.42 0.43 0.44 0.47 0.48 0.46 0.45 0.43 0.42 0.41 0.41
0.20 0.22 0.23 0.26 0.26 0.25 0.27 0.28 0.28 0.32 0.33 0.28 0.32 0.30 0.35 0.36 0.38 0.40 0.42 0.46 0.44 0.43 0.43 0.42 0.42 0.43 0.44
0.27 0.27 0.29 0.31 0.33 0.33 0.33 0.32 0.32 0.32 0.34 0.28 0.34 0.34 0.34 0.36 0.38 0.41 0.46 0.45 0.43 0.44 0.43 0.42 0.47 0.45 0.46
0.31 0.32 0.34 0.35 0.36 0.33 0.29 0.27 0.26 0.27 0.33 0.33 0.33 0.31 0.32 0.31 0.37 0.41 0.40 0.41 0.43 0.43 0.42 0.42 0.45 0.46 0.47
0.30 0.31 0.32 0.32 0.32 0.31 0.29 0.26 0.27 0.26 0.33 0.29 0.30 0.31 0.27 0.32 0.34 0.36 0.37 0.41 0.42 0.42 0.42 0.43 0.44 0.44 0.44
0.28 0.29 0.31 0.31 0.30 0.31 0.32 0.31 0.28 0.27 0.32 0.34 0.31 0.32 0.30 0.29 0.30 0.33 0.36 0.37 0.40 0.41 0.42 0.42 0.44 0.45 0.43
0.33 0.30 0.27 0.27 0.27 0.29 0.30 0.31 0.32 0.31 0.33 0.35 0.31 0.31 0.29 0.27 0.25 0.30 0.34 0.38 0.40 0.40 0.42 0.43 0.44 0.44 0.45
0.28 0.27 0.26 0.27 0.28 0.28 0.29 0.30 0.30 0.32 0.34 0.36 0.35 0.34 0.33 0.29 0.28 0.30 0.32 0.35 0.40 0.40 0.42 0.41 0.41 0.42 0.39
0.27 0.26 0.26 0.26 0.26 0.28 0.27 0.27 0.28 0.30 0.34 0.36 0.36 0.35 0.31 0.31 0.32 0.32 0.35 0.33 0.40 0.41 0.42 0.42 0.42 0.42 0.40
0.25 0.24 0.24 0.25 0.26 0.28 0.28 0.28 0.27 0.27 0.29 0.32 0.35 0.36 0.36 0.35 0.32 0.35 0.35 0.38 0.40 0.40 0.41 0.39 0.40 0.37 0.37
0.26 0.27 0.26 0.26 0.26 0.27 0.28 0.28 0.27 0.28 0.29 0.31 0.32 0.32 0.32 0.34 0.37 0.34 0.36 0.36 0.39 0.40 0.40 0.38 0.34 0.38 0.45
0.29 0.28 0.28 0.27 0.27 0.26 0.25 0.27 0.27 0.28 0.30 0.31 0.30 0.29 0.26 0.25 0.33 0.40 0.34 0.36 0.37 0.36 0.38 0.38 0.36 0.41 0.49

GFSFLT2_prec_pwat_144.txt.gz
Precipitable_Water
0.97 1.01 0.98 0.91 0.91 0.90 0.92 0.92 0.87 0.91 0.95 0.94 0.92 0.96 0.97 0.93 0.86 0.88 0.89 0.79 0.80 0.76 0.69 0.63 0.50 0.49 0.52
0.92 0.88 0.85 0.82 0.80 0.83 0.79 0.79 0.77 0.72 0.71 0.73 0.79 0.73 0.70 0.75 0.75 0.69 0.72 0.66 0.58 0.56 0.53 0.51 0.51 0.54 0.54
0.80 0.83 0.83 0.79 0.76 0.76 0.73 0.76 0.72 0.60 0.45 0.43 0.44 0.43 0.60 0.53 0.48 0.47 0.45 0.46 0.47 0.47 0.51 0.55 0.56 0.56 0.56
0.67 0.66 0.63 0.62 0.57 0.45 0.44 0.46 0.42 0.44 0.42 0.40 0.40 0.39 0.39 0.41 0.41 0.41 0.40 0.43 0.46 0.49 0.50 0.54 0.55 0.54 0.53
0.44 0.41 0.42 0.44 0.38 0.42 0.40 0.43 0.43 0.42 0.37 0.32 0.31 0.31 0.34 0.34 0.36 0.38 0.39 0.41 0.43 0.46 0.51 0.50 0.50 0.49 0.51
0.34 0.30 0.30 0.30 0.35 0.33 0.31 0.30 0.26 0.36 0.29 0.28 0.32 0.32 0.35 0.38 0.37 0.38 0.40 0.42 0.47 0.46 0.45 0.45 0.45 0.45 0.44
0.21 0.22 0.23 0.26 0.27 0.27 0.28 0.29 0.29 0.31 0.31 0.29 0.34 0.33 0.37 0.35 0.36 0.37 0.40 0.43 0.41 0.41 0.40 0.41 0.41 0.42 0.43
0.28 0.29 0.31 0.33 0.34 0.33 0.32 0.30 0.30 0.30 0.31 0.26 0.35 0.35 0.37 0.38 0.39 0.41 0.44 0.40 0.38 0.38 0.39 0.39 0.39 0.40 0.40
0.29 0.30 0.29 0.30 0.31 0.29 0.27 0.26 0.27 0.31 0.37 0.33 0.31 0.29 0.29 0.30 0.34 0.37 0.36 0.33 0.34 0.35 0.35 0.36 0.38 0.39 0.40
0.28 0.29 0.31 0.32 0.33 0.36 0.36 0.33 0.29 0.27 0.33 0.27 0.26 0.28 0.24 0.30 0.31 0.33 0.34 0.35 0.35 0.36 0.37 0.37 0.39 0.38 0.37
0.30 0.33 0.36 0.38 0.38 0.35 0.31 0.28 0.24 0.24 0.30 0.30 0.27 0.28 0.28 0.26 0.27 0.30 0.32 0.33 0.34 0.35 0.36 0.37 0.38 0.38 0.36
0.33 0.35 0.36 0.33 0.30 0.28 0.29 0.29 0.30 0.30 0.32 0.32 0.28 0.27 0.26 0.25 0.25 0.29 0.32 0.34 0.35 0.34 0.36 0.37 0.38 0.39 0.39
0.36 0.34 0.32 0.30 0.29 0.28 0.29 0.31 0.31 0.32 0.33 0.33 0.31 0.30 0.29 0.26 0.25 0.27 0.29 0.31 0.35 0.36 0.36 0.37 0.38 0.38 0.37
0.35 0.33 0.31 0.29 0.27 0.29 0.28 0.28 0.27 0.29 0.32 0.32 0.31 0.30 0.26 0.27 0.28 0.27 0.30 0.28 0.33 0.36 0.36 0.37 0.39 0.40 0.41
0.34 0.31 0.29 0.29 0.29 0.30 0.28 0.27 0.26 0.26 0.26 0.29 0.31 0.30 0.31 0.29 0.26 0.29 0.29 0.30 0.33 0.34 0.34 0.33 0.35 0.38 0.41
0.34 0.31 0.29 0.30 0.29 0.29 0.28 0.27 0.25 0.25 0.24 0.25 0.26 0.26 0.28 0.30 0.34 0.29 0.31 0.31 0.33 0.34 0.34 0.31 0.33 0.38 0.40
0.33 0.31 0.31 0.30 0.29 0.28 0.28 0.27 0.25 0.23 0.23 0.26 0.25 0.25 0.23 0.21 0.29 0.34 0.30 0.32 0.33 0.33 0.33 0.33 0.34 0.38 0.42

GFSFLT2_prec_pwat_147.txt.gz
Precipitable_Water
0.98 0.99 0.98 0.95 0.95 0.95 0.92 0.91 0.87 0.84 0.85 0.86 0.86 0.85 0.85 0.84 0.80 0.81 0.85 0.85 0.79 0.83 0.90 0.85 0.77 0.81 0.81
0.91 0.92 0.94 0.97 0.92 0.86 0.82 0.78 0.76 0.76 0.73 0.69 0.66 0.60 0.44 0.43 0.46 0.52 0.74 0.75 0.65 0.60 0.60 0.65 0.60 0.58 0.60
0.74 0.82 0.84 0.81 0.76 0.75 0.71 0.71 0.70 0.68 0.70 0.68 0.56 0.52 0.45 0.38 0.39 0.43 0.52 0.52 0.49 0.49 0.51 0.51 0.54 0.54 0.56
0.71 0.70 0.69 0.67 0.60 0.54 0.47 0.48 0.45 0.45 0.45 0.46 0.46 0.44 0.45 0.45 0.41 0.39 0.39 0.40 0.40 0.41 0.44 0.47 0.50 0.50 0.49
0.51 0.49 0.46 0.45 0.43 0.44 0.42 0.40 0.38 0.41 0.39 0.41 0.38 0.36 0.38 0.38 0.38 0.39 0.38 0.39 0.40 0.43 0.47 0.46 0.45 0.45 0.45
0.21 0.25 0.23 0.21 0.22 0.22 0.23 0.23 0.23 0.36 0.29 0.27 0.33 0.33 0.36 0.38 0.38 0.37 0.38 0.39 0.43 0.44 0.44 0.43 0.43 0.44 0.45
0.21 0.22 0.23 0.25 0.28 0.28 0.30 0.29 0.28 0.31 0.31 0.27 0.32 0.30 0.33 0.33 0.35 0.39 0.41 0.45 0.44 0.41 0.39 0.39 0.40 0.40 0.41
0.29 0.30 0.31 0.32 0.31 0.29 0.28 0.27 0.27 0.30 0.31 0.26 0.33 0.33 0.36 0.35 0.37 0.38 0.38 0.37 0.37 0.35 0.35 0.36 0.36 0.35 0.36
0.33 0.33 0.31 0.31 0.31 0.30 0.30 0.29 0.30 0.34 0.40 0.34 0.30 0.27 0.27 0.28 0.34 0.36 0.34 0.35 0.35 0.35 0.35 0.36 0.37 0.37 0.36
0.33 0.34 0.34 0.34 0.34 0.35 0.36 0.33 0.32 0.27 0.31 0.26 0.26 0.27 0.23 0.29 0.30 0.31 0.32 0.34 0.35 0.35 0.35 0.36 0.37 0.36 0.34
0.34 0.35 0.36 0.36 0.38 0.39 0.37 0.30 0.25 0.24 0.30 0.30 0.27 0.27 0.27 0.25 0.27 0.29 0.31 0.32 0.32 0.34 0.35 0.36 0.37 0.38 0.35
0.35 0.36 0.37 0.39 0.41 0.36 0.32 0.30 0.31 0.30 0.32 0.32 0.28 0.27 0.25 0.23 0.22 0.25 0.27 0.29 0.31 0.31 0.33 0.35 0.36 0.37 0.38
0.38 0.39 0.41 0.42 0.36 0.32 0.31 0.31 0.33 0.32 0.33 0.33 0.31 0.29 0.27 0.23 0.22 0.23 0.25 0.27 0.31 0.31 0.32 0.33 0.33 0.34 0.32
0.42 0.43 0.42 0.38 0.33 0.31 0.29 0.30 0.28 0.28 0.33 0.33 0.32 0.29 0.24 0.25 0.25 0.24 0.27 0.25 0.30 0.32 0.32 0.33 0.35 0.35 0.33
0.44 0.41 0.38 0.35 0.31 0.32 0.31 0.29 0.27 0.26 0.26 0.29 0.30 0.29 0.28 0.27 0.25 0.27 0.27 0.28 0.31 0.31 0.31 0.31 0.34 0.34 0.36
0.43 0.40 0.37 0.32 0.31 0.32 0.32 0.29 0.27 0.27 0.26 0.26 0.26 0.24 0.24 0.26 0.30 0.28 0.29 0.29 0.31 0.32 0.32 0.30 0.31 0.35 0.38
0.42 0.40 0.36 0.33 0.32 0.31 0.30 0.30 0.28 0.27 0.27 0.26 0.24 0.22 0.19 0.18 0.25 0.32 0.28 0.29 0.30 0.31 0.32 0.31 0.30 0.35 0.39

GFSFLT2_prec_pwat_153.txt.gz
Precipitable_Water
0.78 0.81 0.83 0.81 0.86 0.90 0.90 0.87 0.85 0.86 0.84 0.81 0.80 0.78 0.72 0.68 0.65 0.63 0.64 0.66 0.61 0.57 0.52 0.56 0.65 0.68 0.78
0.73 0.73 0.74 0.76 0.75 0.71 0.72 0.79 0.78 0.79 0.77 0.72 0.71 0.65 0.63 0.67 0.65 0.60 0.57 0.56 0.51 0.45 0.42 0.42 0.46 0.52 0.66
0.54 0.71 0.72 0.72 0.68 0.69 0.68 0.65 0.63 0.60 0.54 0.49 0.47 0.46 0.46 0.41 0.46 0.49 0.50 0.47 0.47 0.45 0.44 0.47 0.48 0.52 0.52
0.49 0.50 0.54 0.60 0.60 0.55 0.50 0.51 0.49 0.50 0.46 0.40 0.38 0.37 0.42 0.42 0.40 0.42 0.47 0.50 0.50 0.48 0.48 0.49 0.46 0.45 0.44
0.34 0.37 0.39 0.39 0.36 0.38 0.34 0.31 0.26 0.25 0.22 0.26 0.29 0.31 0.33 0.34 0.37 0.37 0.37 0.38 0.39 0.42 0.41 0.41 0.40 0.40 0.40
0.24 0.24 0.25 0.26 0.27 0.27 0.27 0.26 0.25 0.35 0.30 0.29 0.33 0.31 0.30 0.31 0.31 0.32 0.35 0.37 0.39 0.40 0.41 0.43 0.42 0.41 0.39
0.25 0.26 0.27 0.30 0.30 0.29 0.28 0.28 0.28 0.32 0.33 0.28 0.33 0.28 0.31 0.33 0.38 0.43 0.43 0.41 0.38 0.37 0.36 0.35 0.36 0.36 0.36
0.28 0.29 0.30 0.31 0.31 0.29 0.28 0.27 0.32 0.37 0.37 0.30 0.35 0.32 0.35 0.39 0.42 0.40 0.36 0.32 0.33 0.34 0.35 0.35 0.34 0.35 0.35
0.29 0.30 0.32 0.30 0.30 0.28 0.27 0.27 0.29 0.34 0.40 0.35 0.34 0.33 0.33 0.33 0.34 0.33 0.30 0.32 0.32 0.32 0.33 0.33 0.33 0.33 0.31
0.27 0.29 0.32 0.33 0.33 0.32 0.32 0.31 0.33 0.35 0.41 0.34 0.33 0.32 0.25 0.29 0.30 0.29 0.29 0.31 0.30 0.30 0.30 0.32 0.32 0.32 0.30
0.28 0.28 0.31 0.33 0.35 0.36 0.38 0.39 0.38 0.36 0.41 0.37 0.33 0.30 0.28 0.26 0.27 0.27 0.28 0.27 0.28 0.29 0.30 0.30 0.31 0.32 0.29
0.29 0.29 0.31 0.34 0.37 0.40 0.42 0.45 0.45 0.41 0.41 0.39 0.33 0.31 0.28 0.25 0.23 0.26 0.27 0.28 0.29 0.28 0.29 0.30 0.31 0.31 0.31
0.30 0.32 0.34 0.38 0.42 0.43 0.46 0.46 0.43 0.40 0.39 0.40 0.36 0.34 0.31 0.27 0.25 0.25 0.25 0.26 0.29 0.28 0.28 0.28 0.29 0.29 0.27
0.36 0.38 0.39 0.41 0.43 0.47 0.45 0.43 0.38 0.36 0.39 0.38 0.38 0.35 0.30 0.29 0.28 0.25 0.27 0.24 0.27 0.28 0.28 0.28 0.29 0.30 0.31
0.41 0.39 0.40 0.43 0.46 0.47 0.45 0.41 0.36 0.34 0.34 0.36 0.36 0.34 0.32 0.30 0.25 0.27 0.26 0.26 0.27 0.27 0.26 0.25 0.28 0.31 0.31
0.44 0.42 0.43 0.44 0.46 0.45 0.44 0.41 0.37 0.36 0.34 0.34 0.32 0.30 0.29 0.28 0.29 0.25 0.26 0.25 0.26 0.26 0.27 0.25 0.25 0.30 0.32
0.48 0.45 0.45 0.45 0.47 0.43 0.42 0.41 0.38 0.36 0.34 0.33 0.32 0.29 0.25 0.22 0.24 0.28 0.25 0.25 0.25 0.25 0.27 0.27 0.26 0.29 0.31

GFSFLT2_prec_pwat_156.txt.gz
Precipitable_Water
0.75 0.77 0.78 0.76 0.75 0.74 0.75 0.76 0.80 0.82 0.78 0.80 0.79 0.76 0.74 0.73 0.70 0.68 0.68 0.66 0.63 0.60 0.59 0.59 0.58 0.54 0.51
0.61 0.56 0.58 0.72 0.73 0.69 0.69 0.69 0.65 0.66 0.66 0.67 0.67 0.59 0.55 0.52 0.50 0.48 0.52 0.56 0.54 0.51 0.49 0.56 0.50 0.47 0.47
0.48 0.55 0.57 0.60 0.61 0.63 0.61 0.58 0.59 0.59 0.55 0.47 0.45 0.44 0.43 0.43 0.43 0.43 0.42 0.43 0.45 0.47 0.50 0.50 0.52 0.52 0.51
0.40 0.48 0.51 0.56 0.55 0.49 0.47 0.50 0.48 0.44 0.39 0.35 0.34 0.35 0.39 0.40 0.39 0.39 0.40 0.42 0.41 0.42 0.45 0.48 0.50 0.49 0.47
0.26 0.32 0.35 0.34 0.34 0.35 0.31 0.30 0.29 0.30 0.28 0.31 0.32 0.33 0.33 0.33 0.34 0.34 0.35 0.37 0.38 0.40 0.38 0.39 0.39 0.39 0.39
0.21 0.21 0.23 0.25 0.26 0.26 0.26 0.26 0.25 0.35 0.31 0.30 0.35 0.33 0.33 0.33 0.33 0.36 0.37 0.38 0.38 0.38 0.39 0.40 0.41 0.42 0.42
0.22 0.23 0.22 0.24 0.26 0.25 0.26 0.25 0.25 0.30 0.31 0.27 0.34 0.32 0.35 0.37 0.42 0.44 0.44 0.43 0.41 0.40 0.39 0.38 0.37 0.35 0.34
0.26 0.25 0.26 0.27 0.27 0.25 0.25 0.27 0.28 0.32 0.34 0.29 0.35 0.33 0.37 0.43 0.46 0.44 0.41 0.39 0.37 0.34 0.33 0.33 0.33 0.34 0.34
0.28 0.29 0.28 0.28 0.26 0.25 0.22 0.24 0.26 0.30 0.37 0.36 0.37 0.35 0.37 0.41 0.43 0.41 0.36 0.34 0.33 0.31 0.32 0.32 0.32 0.33 0.32
0.27 0.28 0.28 0.28 0.28 0.27 0.27 0.24 0.27 0.31 0.40 0.36 0.37 0.37 0.33 0.37 0.37 0.36 0.33 0.33 0.31 0.30 0.31 0.32 0.33 0.33 0.31
0.28 0.28 0.28 0.29 0.30 0.32 0.32 0.31 0.30 0.34 0.42 0.41 0.38 0.37 0.35 0.33 0.33 0.33 0.32 0.30 0.30 0.31 0.32 0.33 0.34 0.34 0.30
0.30 0.28 0.29 0.29 0.33 0.36 0.36 0.36 0.40 0.41 0.45 0.43 0.37 0.36 0.34 0.31 0.29 0.31 0.30 0.30 0.31 0.31 0.31 0.32 0.32 0.32 0.33
0.31 0.30 0.31 0.35 0.39 0.39 0.40 0.40 0.43 0.46 0.46 0.43 0.40 0.39 0.36 0.32 0.30 0.29 0.29 0.29 0.31 0.30 0.30 0.29 0.29 0.30 0.27
0.37 0.37 0.39 0.40 0.40 0.41 0.40 0.41 0.43 0.43 0.45 0.43 0.41 0.40 0.35 0.33 0.31 0.28 0.29 0.27 0.30 0.29 0.29 0.28 0.28 0.29 0.28
0.43 0.43 0.43 0.43 0.42 0.43 0.42 0.44 0.43 0.41 0.39 0.41 0.42 0.40 0.38 0.33 0.29 0.28 0.28 0.28 0.30 0.28 0.27 0.24 0.26 0.28 0.29
0.49 0.46 0.45 0.43 0.42 0.42 0.43 0.46 0.43 0.41 0.39 0.40 0.39 0.36 0.33 0.32 0.33 0.28 0.28 0.28 0.28 0.27 0.27 0.24 0.23 0.28 0.29
0.53 0.50 0.48 0.45 0.44 0.43 0.43 0.47 0.43 0.42 0.41 0.40 0.38 0.33 0.28 0.26 0.30 0.32 0.28 0.26 0.26 0.25 0.27 0.26 0.24 0.27 0.29